Location: Cartignies
(50.0929°N, 3.8447°E)
Time: 14:44:37
(UTC+00:00)

Cosmos 1666 Rocket - Pass Details

Date: 12 January 2026
Orbit: 598 x 625 km, 82.5° (Epoch: 16 February)

Event Time Altitude Azimuth Distance (km) Brightness Sun altitude
Rises 16:44:47 0° 355° (N) 2,916 6.8 -6.1°
Reaches altitude 10° 16:47:09 10° 3° (N) 2,007 5.9 -6.5°
Maximum altitude 16:51:21 39° 73° (ENE) 943 4.0 -7.1°
Drops below altitude 10° 16:55:30 10° 143° (SE) 1,996 6.0 -7.7°
Sets 16:57:51 0° 151° (SSE) 2,898 7.0 -8.0°
